STARLINK-1684 (46539 NORAD) Tracking and Keplerian Element Data

This shows tracking and keplerian element data for the satellite.

Feedback or suggestion? Click here.




ElementValue
Catalog46539
NameSTARLINK-1684
Epoch Orbit954
Epoch Day338.65803884
Epoch Year2020
RAAN163.2791
Inclination53.0023
Eccentricity4.15E-05
Argument of Perigee78.9426
Mean Anonmoly281.1616
Mean Motion15.23042865
Decay Rate-0.00259913
L11 46539U 20070H 20338.65803884 -.00259913 00000-0 -11275-1 0 9992
L22 46539 53.0023 163.2791 0000415 78.9426 281.1616 15.23042865 9546

Live tracking and technical data element details for STARLINK-1684 (NORAD 46539). STARLINK-1684 can be tracked NOW for your location showing map with azimuth and elevation plus other details from your city location.

Track the satellite on the map from your city or location and see movement details for azimuth, elevation, latitude, longitude, range, height, and movement on the map or in text.







IsCatalogInMostPopularTable: catalog: 46539, numindb: 13
Update: records affected: 1



GetName: 46539 STARLINK-1684

Hit Count: updated at: Sat, 05 Dec 2020 05:20:26 GMT